Satellite: SOHLA-1
Catalog number: 33496
Epoch time: 10126.48888826
Element set: 95
Inclination: 098.0547 deg
RA of node: 236.1120 deg
Eccentricity: 0.0006451
Arg of perigee: 345.8942 deg
Mean anomaly: 014.2067 deg
Mean motion: 14.69490304 rev/day
Decay rate: 8.1e-07 rev/day^2
Epoch rev: 6875
Checksum: 307
/EX
SB KEPS @ AMSAT $ORB10126.W
Orbital Elements 10126.WEATHER
HR AMSAT ORBITAL ELEMENTS FOR WEATHER SATELLITES
FROM WA5QGD FORT WORTH,TX May 6, 2010
Send Subscribe/unsubscribe to KEPS at http://www.amsat.org/mailman/listinfo/keps
BID: ORB10126.W
TO ALL RADIO AMATEURS BT
Satellite: NOAA-10
Catalog number: 16969
Epoch time: 10126.09512069
Element set: 56
Inclination: 098.6587 deg
RA of node: 155.4523 deg
Eccentricity: 0.0011955
Arg of perigee: 339.3598 deg
Mean anomaly: 020.7095 deg
Mean motion: 14.27415306 rev/day
Decay rate: 8.0e-07 rev/day^2
Epoch rev: 22957
Checksum: 314
Satellite: NOAA-11
Catalog number: 19531
Epoch time: 10126.30650089
Element set: 69
Inclination: 098.7677 deg
RA of node: 216.0426 deg
Eccentricity: 0.0010718
Arg of perigee: 268.9269 deg
Mean anomaly: 091.0706 deg
Mean motion: 14.14924633 rev/day
Decay rate: 1.66e-06 rev/day^2
Epoch rev: 11521
Checksum: 294
Satellite: NOAA-12
Catalog number: 21263
Epoch time: 10126.24072470
Element set: 554
Inclination: 098.7661 deg
RA of node: 139.4045 deg
Eccentricity: 0.0011498
Arg of perigee: 291.2997 deg
Mean anomaly: 068.6957 deg
Mean motion: 14.25630372 rev/day
Decay rate: -1.6e-07 rev/day^2
Epoch rev: 98642
Checksum: 314
Satellite: MET-3/5
Catalog number: 21655
Epoch time: 10125.94155857
Element set: 804
Inclination: 082.5561 deg
RA of node: 338.4881 deg
Eccentricity: 0.0014839
Arg of perigee: 094.2761 deg
Mean anomaly: 266.0084 deg
Mean motion: 13.17023450 rev/day
Decay rate: 5.1e-07 rev/day^2
Epoch rev: 90011
Checksum: 288
Satellite: MET-2/21
Catalog number: 22782
Epoch time: 10125.91581131
Element set: 0768
Inclination: 082.5454 deg
RA of node: 285.9782 deg
Eccentricity: 0.0022811
Arg of perigee: 157.7636 deg
Mean anomaly: 202.4523 deg
Mean motion: 13.83643973 rev/day
Decay rate: 4.4e-07 rev/day^2
Epoch rev: 84223
Checksum: 306
Satellite: OKEAN-4
Catalog number: 23317
Epoch time: 10126.07873904
Element set: 223
Inclination: 082.5415 deg
RA of node: 033.1618 deg
Eccentricity: 0.0023137
Arg of perigee: 024.9487 deg
Mean anomaly: 335.2789 deg
Mean motion: 14.82810698 rev/day
Decay rate: 3.55e-06 rev/day^2
Epoch rev: 84021
Checksum: 294
Satellite: NOAA-14
Catalog number: 23455
Epoch time: 10126.31608471
Element set: 46
Inclination: 098.8786 deg
RA of node: 207.3481 deg
Eccentricity: 0.0009463
Arg of perigee: 000.5513 deg
Mean anomaly: 359.5676 deg
Mean motion: 14.13785424 rev/day
Decay rate: 3.9e-07 rev/day^2
Epoch rev: 79158
Checksum: 314
Satellite: NOAA-15
Catalog number: 25338
Epoch time: 10126.30058276
Element set: 366
Inclination: 098.6175 deg
RA of node: 113.9832 deg
Eccentricity: 0.0010272
Arg of perigee: 191.5249 deg
Mean anomaly: 168.5711 deg
Mean motion: 14.24822344 rev/day
Decay rate: -2.4e-07 rev/day^2
Epoch rev: 62278
Checksum: 295
Satellite: RESURS
Catalog number: 25394
Epoch time: 10125.70308426
Element set: 495
Inclination: 098.3054 deg
RA of node: 146.0935 deg
Eccentricity: 0.0001546
Arg of perigee: 028.6981 deg
Mean anomaly: 331.4273 deg
Mean motion: 14.24198598 rev/day
Decay rate: -3.91e-06 rev/day^2
Epoch rev: 61430
Checksum: 298
Satellite: FENGYUN1
Catalog number: 25730
Epoch time: 10125.95874208
Element set: 35
Inclination: 098.7853 deg
RA of node: 092.0145 deg
Eccentricity: 0.0024963
Arg of perigee: 028.8422 deg
Mean anomaly: 331.4033 deg
Mean motion: 14.08224792 rev/day
Decay rate: 5.5e-07 rev/day^2
Epoch rev: 56574
Checksum: 292
Satellite: OKEAN-0
Catalog number: 25860
Epoch time: 10126.04635224
Element set: 984
Inclination: 097.8289 deg
RA of node: 100.1858 deg
Eccentricity: 0.0000835
Arg of perigee: 106.6958 deg
Mean anomaly: 253.4359 deg
Mean motion: 14.73636319 rev/day
Decay rate: 9.1e-07 rev/day^2
Epoch rev: 58069
Checksum: 318
Satellite: NOAA-16
Catalog number: 26536
Epoch time: 10126.29350599
Element set: 843
Inclination: 099.1724 deg
RA of node: 142.7732 deg
Eccentricity: 0.0011475
Arg of perigee: 095.2232 deg
Mean anomaly: 265.0216 deg
Mean motion: 14.12557453 rev/day
Decay rate: 6.9e-07 rev/day^2
Epoch rev: 49591
Checksum: 308
Satellite: NOAA-17
Catalog number: 27453
Epoch time: 10126.33383397
Element set: 847
Inclination: 098.4343 deg
RA of node: 178.4557 deg
Eccentricity: 0.0010728
Arg of perigee: 258.6912 deg
Mean anomaly: 101.3096 deg
Mean motion: 14.24154643 rev/day
Decay rate: 6.2e-07 rev/day^2
Epoch rev: 40874
Checksum: 312
Satellite: NOAA-18
Catalog number: 28654
Epoch time: 10126.33160093
Element set: 331
Inclination: 098.9478 deg
RA of node: 072.7223 deg
Eccentricity: 0.0014549
Arg of perigee: 168.1023 deg
Mean anomaly: 192.0499 deg
Mean motion: 14.11353948 rev/day
Decay rate: 4.05e-06 rev/day^2
Epoch rev: 25553
Checksum: 300
Satellite: NOAA-19
Catalog number: 33591
Epoch time: 10126.31053242
Element set: 529
Inclination: 098.7871 deg
RA of node: 069.3270 deg
Eccentricity: 0.0014936
Arg of perigee: 050.4556 deg
Mean anomaly: 309.7925 deg
Mean motion: 14.11050794 rev/day
Decay rate: 2.64e-06 rev/day^2
Epoch rev: 6400
Checksum: 291
/EX
SB KEPS @ AMSAT $ORB10126.M
Orbital Elements 10126.MISC
HR AMSAT ORBITAL ELEMENTS FOR MANNED AND MISCELLANEOUS SATELLITES
FROM WA5QGD FORT WORTH,TX May 6, 2010
Send Subscribe/unsubscribe to KEPS at http://www.amsat.org/mailman/listinfo/keps
BID: ORB10126.M
TO ALL RADIO AMATEURS BT
Satellite: HUBBLE
Catalog number: 20580
Epoch time: 10124.36202321
Element set: 560
Inclination: 028.4679 deg
RA of node: 165.9513 deg
Eccentricity: 0.0003653
Arg of perigee: 101.8537 deg
Mean anomaly: 258.2463 deg
Mean motion: 15.00964583 rev/day
Decay rate: 6.01e-06 rev/day^2
Epoch rev: 89816
Checksum: 280
Satellite: ISS
Catalog number: 25544
Epoch time: 10126.72202001
Element set: 103
Inclination: 051.6446 deg
RA of node: 083.3867 deg
Eccentricity: 0.0009651
Arg of perigee: 282.3663 deg
Mean anomaly: 141.3713 deg
Mean motion: 15.73727181 rev/day
Decay rate: 2.3462e-04 rev/day^2
Epoch rev: 65694
Checksum: 276
Satellite: CO-58
Catalog number: 28895
Epoch time: 10125.62441332
Element set: 575
Inclination: 098.0209 deg
RA of node: 011.4979 deg
Eccentricity: 0.0019001
Arg of perigee: 060.5741 deg
Mean anomaly: 299.7342 deg
Mean motion: 14.59885243 rev/day
Decay rate: 2.58e-06 rev/day^2
Epoch rev: 24077
Checksum: 319
Satellite: FALCON
Catalog number: 30776
Epoch time: 10126.78225945
Element set: 821
Inclination: 035.4343 deg
RA of node: 295.6670 deg
Eccentricity: 0.0002028
Arg of perigee: 233.1826 deg
Mean anomaly: 126.8709 deg
Mean motion: 15.03637892 rev/day
Decay rate: 7.91e-06 rev/day^2
Epoch rev: 17382
Checksum: 304
Satellite: MAST
Catalog number: 31126
Epoch time: 10125.61238337
Element set: 857
Inclination: 097.9410 deg
RA of node: 169.8167 deg
Eccentricity: 0.0094545
Arg of perigee: 359.2665 deg
Mean anomaly: 000.8380 deg
Mean motion: 14.53581314 rev/day
Decay rate: 5.7e-07 rev/day^2
Epoch rev: 16187
Checksum: 305
